Bowling Green, KY

5:53 AM CDT on October 20, 2017 (GMT -0500)
Bowling Green-Warren County Regional

Weather History for KBWG - November, 2013

Change the Weather History Date:

Saturday, November 16, 2013

  Actual Average Record
Temperature  
Mean Temperature 57 °F 48 °F  
Max Temperature 64 °F 59 °F 79 °F (1931)
Min Temperature 49 °F 37 °F 10 °F (1883)
Degree Days  
Heating Degree Days 8 17  
Month to date heating degree days 282 226  
Since 1 July heating degree days 532 489  
Cooling Degree Days 0 0  
Month to date cooling degree days 0 0  
Year to date cooling degree days 1499 1488  
Growing Degree Days 6 (Base 50)    
Moisture  
Dew Point 53 °F    
Average Humidity 89    
Maximum Humidity 100    
Minimum Humidity 78    
Precipitation  
Precipitation T in 0.14 in 2.31 in (2011)
Month to date precipitation 0.79 2.09  
Year to date precipitation 52.62 42.96  
Snow  
Snow 0.00 in 0.00 in T in (1989)
Month to date snowfall T 0.0  
Since 1 July snowfall T T  
Since 1 September snowfall T T  
Snow Depth 0.00 in    
Sea Level Pressure  
Sea Level Pressure 30.05 in    
Wind  
Wind Speed 10 mph (South)    
Max Wind Speed 21 mph    
Max Gust Speed 29 mph    
Visibility 6 miles    
Events      
T = Trace of Precipitation, MM = Missing Value Source: NWS Daily Summary

Daily Weather History Graph

Daily Weather History Graph

Search for Another Location

Airport or City:

Trip Planner

Search our weather history database for the weather conditions in past years. The results will help you decide how hot, cold, wet, or windy it might be!

Date:

Astronomy

Nov. 16, 2013 Rise Set
Actual Time 6:25 AM CST 4:35 PM CST
Civil Twilight 5:57 AM CST 5:02 PM CST
Nautical Twilight 5:26 AM CST 5:34 PM CST
Astronomical Twilight 4:55 AM CST 6:05 PM CST
Moon 4:09 PM CST (11/16) 5:22 AM CST (11/16)
Length of Visible Light 11h 05m
Length of Day
10h 09m
Waxing Gibbous, 99% of the Moon is Illuminated
Nov 16
Waxing Gibbous
Nov 17
Full
Nov 25
Last Quarter
Dec 2
New
Dec 9
First Quarter

Hourly Weather History & Observations

Time (CST) Temp. Dew Point Humidity Pressure Visibility Wind Dir Wind Speed Gust Speed Precip Events Conditions
12:53 AM 50.0 °F 48.9 °F 96% 30.09 in 6.0 mi South 8.1 mph - N/A   Overcast
1:53 AM 51.1 °F 48.9 °F 92% 30.10 in 6.0 mi South 8.1 mph - N/A   Overcast
2:53 AM 51.1 °F 48.9 °F 92% 30.10 in 5.0 mi South 10.4 mph - N/A   Overcast
3:44 AM 51.8 °F 48.2 °F 88% 30.10 in 2.0 mi South 4.6 mph - N/A   Overcast
3:53 AM 50.0 °F 48.9 °F 96% 30.10 in 1.8 mi South 4.6 mph - N/A   Overcast
4:08 AM 50.0 °F 48.2 °F 94% 30.09 in 1.8 mi South 5.8 mph - N/A   Overcast
4:29 AM 51.8 °F 50.0 °F 94% 30.09 in 2.5 mi South 5.8 mph - N/A   Overcast
4:48 AM 51.8 °F 48.2 °F 88% 30.09 in 3.0 mi South 6.9 mph - N/A   Overcast
4:53 AM 51.1 °F 48.9 °F 92% 30.10 in 3.0 mi South 6.9 mph - N/A   Overcast
5:38 AM 51.8 °F 50.0 °F 94% 30.11 in 2.5 mi South 5.8 mph - N/A   Overcast
5:48 AM 51.8 °F 50.0 °F 94% 30.11 in 3.0 mi South 5.8 mph - N/A   Overcast
5:53 AM 51.1 °F 50.0 °F 96% 30.12 in 2.5 mi South 5.8 mph - N/A   Overcast
6:36 AM 51.8 °F 50.0 °F 94% 30.11 in 3.0 mi SSE 4.6 mph - N/A   Overcast
6:53 AM 52.0 °F 50.0 °F 93% 30.12 in 3.0 mi SSE 4.6 mph - N/A   Overcast
7:53 AM 53.1 °F 51.1 °F 93% 30.13 in 3.0 mi South 6.9 mph - N/A   Overcast
8:10 AM 53.6 °F 51.8 °F 94% 30.13 in 2.5 mi South 6.9 mph - N/A   Overcast
8:38 AM 53.6 °F 51.8 °F 94% 30.12 in 3.0 mi South 8.1 mph - N/A   Overcast
8:53 AM 55.0 °F 53.1 °F 93% 30.12 in 4.0 mi South 9.2 mph - N/A   Overcast
9:53 AM 57.0 °F 54.0 °F 89% 30.11 in 6.0 mi South 10.4 mph - N/A   Overcast
10:20 AM 59.0 °F 53.6 °F 82% 30.10 in 7.0 mi South 10.4 mph - N/A   Overcast
10:32 AM 59.0 °F 53.6 °F 82% 30.09 in 7.0 mi South 13.8 mph 19.6 mph N/A   Overcast
10:53 AM 60.1 °F 54.0 °F 80% 30.07 in 8.0 mi South 12.7 mph 20.7 mph N/A   Overcast
11:53 AM 60.1 °F 55.0 °F 83% 30.06 in 8.0 mi South 5.8 mph - N/A   Overcast
12:53 PM 61.0 °F 55.9 °F 83% 30.03 in 9.0 mi SSE 10.4 mph - N/A   Overcast
1:53 PM 61.0 °F 57.0 °F 87% 30.01 in 7.0 mi SSE 9.2 mph - 0.00 in   Overcast
2:12 PM 60.8 °F 57.2 °F 88% 30.01 in 9.0 mi South 6.9 mph - N/A   Overcast
2:53 PM 62.1 °F 57.9 °F 86% 30.00 in 10.0 mi SSE 5.8 mph - N/A   Overcast
3:53 PM 63.0 °F 57.9 °F 84% 29.98 in 10.0 mi SSE 5.8 mph - N/A   Overcast
4:53 PM 63.0 °F 57.9 °F 84% 29.98 in 10.0 mi South 10.4 mph - N/A   Overcast
5:53 PM 63.0 °F 57.9 °F 84% 29.97 in 10.0 mi SSE 13.8 mph - N/A   Overcast
6:08 PM 62.6 °F 57.2 °F 82% 29.97 in 10.0 mi South 9.2 mph - N/A   Overcast
6:27 PM 62.6 °F 57.2 °F 82% 29.97 in 10.0 mi South 10.4 mph - N/A   Overcast
6:53 PM 63.0 °F 57.9 °F 84% 29.97 in 10.0 mi South 10.4 mph - N/A   Overcast
7:53 PM 63.0 °F 57.0 °F 81% 29.96 in 10.0 mi South 16.1 mph 26.5 mph N/A   Overcast
8:53 PM 63.0 °F 55.9 °F 78% 29.96 in 10.0 mi South 19.6 mph 25.3 mph N/A   Overcast
9:53 PM 62.1 °F 55.0 °F 78% 29.94 in 10.0 mi South 15.0 mph 21.9 mph N/A   Mostly Cloudy
10:53 PM 63.0 °F 55.9 °F 78% 29.94 in 10.0 mi South 20.7 mph 28.8 mph N/A   Overcast
11:53 PM 63.0 °F 55.9 °F 78% 29.93 in 10.0 mi South 17.3 mph 25.3 mph N/A   Mostly Cloudy